Date String (YYYY-MM-DD hh:mm:ss) UTC,Instrument flags,absolute air pressure of the measurement (hPa),sample flow rate (lpm),inlet stack bypass flow (lpm),air temperature of the measurement (°C),ambient temperature measured by the external sensor (°C),aerosol sample conditioner tube jacket temperature (°C),OPC LED temperature (°C),internal box temperature (°C),relative humidity of the measurement (%),span deviation,mass concentration of particles derived from Lorenz-Mie calculation of OPC scattering (μg/m³),mass concentration of particles derived from Lorenz-Mie calculation of OPC scattering (μg/m³),mass concentration of particles derived from Lorenz-Mie calculation of OPC scattering (μg/m³)
DateTimeUTC,F1_M11,P_M11,Q1_M11,Q2_M11,T1_M11,T2_M11,T3_M11,T4_M11,T5_M11,U1_M11,ZSPAN_M11,X2_M11,X0_M11,X1_M11
2024-02-04 17:00:00,SystemResetWarning,0828.1,5.00,000.00,019.0,018.7,000.0,027.2,020.7,19.8,0000.0,0001.73,0003.06,0001.57
2024-02-04 17:01:00,SystemResetWarning,0828.1,5.00,000.00,019.1,018.8,000.0,027.2,020.7,19.8,0000.0,0001.81,0003.14,0001.63
2024-02-04 17:02:00,SystemResetWarning,0828.1,4.99,000.00,019.1,018.8,000.0,027.2,020.7,19.4,0000.0,0001.98,0003.29,0001.80
2024-02-04 17:03:00,SystemResetWarning,0828.1,5.00,000.00,019.1,018.8,000.0,027.2,020.8,19.4,0000.0,0002.21,0003.52,0002.03
2024-02-04 17:04:00,SystemResetWarning,0828.1,5.01,000.00,019.1,018.8,000.0,027.3,020.8,19.9,0000.0,0002.41,0003.73,0002.22
2024-02-04 17:05:00,SystemResetWarning,0828.1,5.00,000.00,019.1,018.8,000.0,027.3,020.8,19.9,0000.0,0002.50,0003.83,0002.31
2024-02-04 17:06:00,SystemResetWarning,0828.1,5.00,000.00,019.2,018.9,000.0,027.3,020.8,19.4,0000.0,0002.66,0003.43,0002.47
2024-02-04 17:07:00,SystemResetWarning,0828.1,5.00,000.00,019.2,018.9,000.0,027.3,020.8,20.0,0000.0,0002.76,0003.36,0002.58
2024-02-04 17:08:00,SystemResetWarning,0828.2,4.99,000.00,019.2,018.9,000.0,027.3,020.8,20.0,0000.0,0002.80,0003.38,0002.61
2024-02-04 17:09:00,SystemResetWarning,0828.1,5.00,000.00,019.2,018.9,000.0,027.3,020.8,19.3,0000.0,0002.81,0003.40,0002.60
2024-02-04 17:10:00,SystemResetWarning,0828.2,5.00,000.00,019.2,018.9,000.0,027.4,020.9,19.6,0000.0,0002.90,0003.46,0002.70
2024-02-04 17:11:00,SystemResetWarning,0828.2,5.01,000.00,019.2,019.0,000.0,027.4,020.9,20.2,0000.0,0003.03,0003.61,0002.82
2024-02-04 17:12:00,SystemResetWarning,0828.3,5.01,000.00,019.3,019.0,000.0,027.4,020.9,20.2,0000.0,0003.08,0003.66,0002.90
2024-02-04 17:13:00,SystemResetWarning,0828.3,5.00,000.00,019.3,019.0,000.0,027.4,020.9,19.9,0000.0,0003.16,0004.16,0002.98
2024-02-04 17:14:00,SystemResetWarning,0828.3,5.00,000.00,019.3,019.0,000.0,027.4,021.0,19.8,0000.0,0003.23,0005.33,0003.07
2024-02-04 17:15:00,SystemResetWarning,0828.4,4.99,000.00,019.3,019.0,000.0,027.4,021.0,19.8,0000.0,0003.31,0005.59,0003.15
2024-02-04 17:16:00,SystemResetWarning,0828.3,5.00,000.00,019.3,019.0,000.0,027.5,021.0,19.6,0000.0,0003.46,0006.12,0003.28
2024-02-04 17:17:00,SystemResetWarning,0828.3,5.01,000.00,019.4,019.1,000.0,027.5,021.0,20.0,0000.0,0003.57,0006.50,0003.38
2024-02-04 17:18:00,SystemResetWarning,0828.3,5.00,000.00,019.4,019.1,000.0,027.5,021.0,19.6,0000.0,0003.62,0006.64,0003.43
2024-02-04 17:19:00,SystemResetWarning,0828.3,5.01,000.00,019.4,019.1,000.0,027.5,021.1,19.6,0000.0,0003.77,0006.87,0003.59
2024-02-04 17:20:00,SystemResetWarning,0828.4,5.00,000.00,019.4,019.1,000.0,027.5,021.1,19.5,0000.0,0003.97,0007.26,0003.79
2024-02-04 17:21:00,SystemResetWarning,0828.4,5.00,000.00,019.4,019.1,000.0,027.5,021.1,19.4,0000.0,0004.15,0007.49,0003.96
2024-02-04 17:22:00,SystemResetWarning,0828.4,5.00,000.00,019.4,019.1,000.0,027.6,021.1,19.4,0000.0,0004.42,0007.84,0004.21
2024-02-04 17:23:00,SystemResetWarning,0828.3,4.99,000.00,019.4,019.1,000.0,027.6,021.1,19.5,0000.0,0004.74,0008.19,0004.51
2024-02-04 17:24:00,SystemResetWarning,0828.4,4.99,000.00,019.4,019.1,000.0,027.6,021.1,19.2,0000.0,0004.95,0008.18,0004.74
2024-02-04 17:25:00,SystemResetWarning,0828.3,5.00,000.00,019.5,019.1,000.0,027.6,021.1,19.1,0000.0,0005.13,0007.84,0004.94
2024-02-04 17:26:00,SystemResetWarning,0828.4,5.00,000.00,019.5,019.2,000.0,027.6,021.1,18.6,0000.0,0005.29,0007.97,0005.10
2024-02-04 17:27:00,SystemResetWarning,0828.3,5.00,000.00,019.5,019.2,000.0,027.6,021.1,17.9,0000.0,0005.41,0008.13,0005.23
2024-02-04 17:28:00,SystemResetWarning,0828.4,5.00,000.00,019.5,019.2,000.0,027.7,021.2,17.8,0000.0,0005.48,0008.25,0005.31
2024-02-04 17:29:00,SystemResetWarning,0828.4,5.00,000.00,019.5,019.2,000.0,027.7,021.2,17.8,0000.0,0005.50,0008.23,0005.32
2024-02-04 17:30:00,SystemResetWarning,0828.4,5.01,000.00,019.5,019.2,000.0,027.7,021.2,18.5,0000.0,0005.42,0008.16,0005.23
2024-02-04 17:31:00,SystemResetWarning,0828.4,5.01,000.00,019.6,019.2,000.0,027.7,021.2,19.0,0000.0,0005.26,0007.99,0005.09
2024-02-04 17:32:00,SystemResetWarning,0828.4,5.00,000.00,019.6,019.3,000.0,027.7,021.3,18.8,0000.0,0005.18,0007.89,0005.00
2024-02-04 17:33:00,SystemResetWarning,0828.4,5.00,000.00,019.6,019.3,000.0,027.7,021.3,19.0,0000.0,0005.11,0007.78,0004.94
2024-02-04 17:34:00,SystemResetWarning,0828.4,4.99,000.00,019.6,019.3,000.0,027.8,021.3,18.9,0000.0,0005.01,0007.65,0004.85
2024-02-04 17:35:00,SystemResetWarning,0828.4,5.00,000.00,019.6,019.3,000.0,027.8,021.3,19.0,0000.0,0004.93,0007.57,0004.77
2024-02-04 17:36:00,SystemResetWarning,0828.4,4.99,000.00,019.7,019.3,000.0,027.8,021.3,19.0,0000.0,0004.83,0007.47,0004.69
2024-02-04 17:37:00,SystemResetWarning,0828.4,5.00,000.00,019.7,019.3,000.0,027.8,021.3,18.5,0000.0,0004.76,0007.40,0004.62
2024-02-04 17:38:00,SystemResetWarning,0828.4,5.01,000.00,019.7,019.4,000.0,027.8,021.3,18.4,0000.0,0004.69,0007.34,0004.55
2024-02-04 17:39:00,SystemResetWarning,0828.4,5.00,000.00,019.7,019.4,000.0,027.8,021.4,18.7,0000.0,0004.65,0006.77,0004.51
2024-02-04 17:40:00,SystemResetWarning,0828.5,5.00,000.00,019.7,019.4,000.0,027.9,021.4,18.9,0000.0,0004.61,0006.75,0004.47
2024-02-04 17:41:00,SystemResetWarning,0828.5,5.01,000.00,019.7,019.4,000.0,027.9,021.4,18.2,0000.0,0004.67,0006.88,0004.54
2024-02-04 17:42:00,SystemResetWarning,0828.6,5.00,000.00,019.8,019.4,000.0,027.9,021.4,18.2,0000.0,0004.77,0006.97,0004.64
2024-02-04 17:43:00,SystemResetWarning,0828.6,4.99,000.00,019.8,019.5,000.0,027.9,021.5,18.2,0000.0,0004.84,0007.11,0004.72
2024-02-04 17:44:00,SystemResetWarning,0828.6,5.00,000.00,019.8,019.5,000.0,027.9,021.5,18.4,0000.0,0004.79,0007.00,0004.68
2024-02-04 17:45:00,SystemResetWarning,0828.6,5.00,000.00,019.8,019.5,000.0,027.9,021.5,18.3,0000.0,0004.73,0006.84,0004.62
2024-02-04 17:46:00,SystemResetWarning,0828.6,5.00,000.00,019.8,019.5,000.0,027.9,021.5,18.4,0000.0,0004.67,0006.73,0004.57
2024-02-04 17:47:00,SystemResetWarning,0828.6,5.01,000.00,019.9,019.5,000.0,028.0,021.5,18.1,0000.0,0004.61,0006.57,0004.51
2024-02-04 17:48:00,SystemResetWarning,0828.6,5.01,000.00,019.9,019.5,000.0,028.0,021.6,17.9,0000.0,0004.57,0006.48,0004.48
2024-02-04 17:49:00,SystemResetWarning,0828.6,4.99,000.00,019.9,019.6,000.0,028.0,021.6,18.0,0000.0,0004.54,0006.41,0004.44
2024-02-04 17:50:00,SystemResetWarning,0828.6,4.99,000.00,019.9,019.6,000.0,028.0,021.6,17.9,0000.0,0004.50,0006.33,0004.40
2024-02-04 17:51:00,SystemResetWarning,0828.6,5.00,000.00,019.9,019.6,000.0,028.0,021.6,18.2,0000.0,0004.52,0006.31,0004.42
2024-02-04 17:52:00,SystemResetWarning,0828.6,5.00,000.00,019.9,019.6,000.0,028.0,021.6,18.4,0000.0,0004.51,0006.21,0004.42
2024-02-04 17:53:00,SystemResetWarning,0828.6,5.01,000.00,020.0,019.6,000.0,028.1,021.6,18.3,0000.0,0004.49,0006.15,0004.40
2024-02-04 17:54:00,SystemResetWarning,0828.6,5.00,000.00,020.0,019.6,000.0,028.1,021.7,18.5,0000.0,0004.47,0006.08,0004.38
2024-02-04 17:55:00,SystemResetWarning,0828.6,5.00,000.00,020.0,019.7,000.0,028.1,021.7,18.6,0000.0,0004.50,0006.14,0004.40
2024-02-04 17:56:00,SystemResetWarning,0828.6,5.00,000.00,020.0,019.7,000.0,028.1,021.7,18.6,0000.0,0004.53,0006.18,0004.43
2024-02-04 17:57:00,SystemResetWarning,0828.6,4.99,000.00,020.0,019.7,000.0,028.1,021.7,18.5,0000.0,0004.59,0006.31,0004.50
2024-02-04 17:58:00,SystemResetWarning,0828.6,5.00,000.00,020.0,019.7,000.0,028.2,021.7,18.6,0000.0,0004.68,0006.50,0004.58
2024-02-04 17:59:00,SystemResetWarning,0828.6,5.00,000.00,020.1,019.7,000.0,028.2,021.8,18.8,0000.0,0004.72,0007.38,0004.61
